EST,Max TemperatureF,Mean TemperatureF,Min TemperatureF,Max Dew PointF,MeanDew PointF,Min DewpointF,Max Humidity, Mean Humidity, Min Humidity, Max Sea Level PressureIn, Mean Sea Level PressureIn, Min Sea Level PressureIn, Max VisibilityMiles, Mean VisibilityMiles, Min VisibilityMiles, Max Wind SpeedMPH, Mean Wind SpeedMPH, Max Gust SpeedMPH,PrecipitationIn, CloudCover, Events, WindDirDegrees
2013-2-1,25,17,9,22,10,2,96,78,59,30.40,30.11,29.81,10,6,0,16,7,25,T,7,Fog-Snow,260
2013-2-2,26,18,9,23,16,2,92,73,54,30.38,30.07,29.96,10,5,1,14,6,22,T,7,Snow,206
2013-2-3,28,24,20,25,22,10,100,84,67,30.09,29.89,29.80,10,4,0,14,6,22,T,8,Fog-Snow,235
2013-2-4,33,26,19,32,22,10,100,79,57,30.13,29.96,29.86,10,5,0,12,6,17,0.03,8,Fog-Snow,211
2013-2-5,37,34,31,34,31,27,100,85,70,29.96,29.87,29.82,10,4,1,13,4,20,0.01,8,Snow,226
2013-2-6,34,28,21,30,26,21,100,85,69,30.34,30.20,29.93,10,7,2,13,3,20,T,7,,274
2013-2-7,44,33,22,31,26,22,100,79,57,30.32,30.18,29.99,10,9,3,14,5,18,0.00,3,,109
2013-2-8,42,34,26,38,31,20,92,81,70,30.21,29.93,29.81,10,8,3,16,8,25,0.10,7,Rain-Snow,231
2013-2-9,35,28,21,21,19,16,81,64,47,30.42,30.34,30.18,10,8,2,13,4,18,0.01,5,Snow,292
2013-2-10,54,36,18,35,20,15,92,59,26,30.38,30.20,30.00,10,10,4,16,4,22,0.02,3,Rain,148
2013-2-11,63,52,40,47,34,21,83,53,23,29.95,29.84,29.70,10,10,10,24,11,40,0.02,5,Rain,223
2013-2-12,49,40,31,26,23,19,61,46,31,30.09,30.00,29.95,10,10,10,15,7,28,0.00,3,,248
2013-2-13,45,36,27,33,29,22,100,77,53,29.94,29.79,29.67,10,6,0,14,3,18,0.01,7,Fog-Snow,322
2013-2-14,44,37,29,30,28,24,92,75,57,30.01,29.96,29.91,10,10,7,15,7,22,0.14,6,Rain,194
2013-2-15,41,37,32,34,30,25,96,75,54,30.07,30.02,29.95,10,6,1,10,4,16,0.04,8,Snow,248
2013-2-16,32,27,22,27,18,11,85,68,50,30.05,30.00,29.95,10,10,4,12,4,17,0.03,7,Snow,330
2013-2-17,22,19,15,18,11,4,84,67,49,30.29,30.06,29.91,10,7,1,16,9,24,T,8,Snow,289
2013-2-18,49,30,10,30,15,5,83,58,32,30.35,30.19,29.92,10,10,10,16,5,24,0.00,0,,186
2013-2-19,48,37,25,37,28,18,86,60,34,29.99,29.86,29.71,10,7,1,18,9,29,0.11,7,Rain-Snow,236
2013-2-20,25,23,20,21,14,8,81,69,57,30.27,30.09,29.96,10,6,1,15,8,30,T,8,Snow,271
2013-2-21,27,24,20,16,13,10,77,67,57,30.36,30.29,30.22,10,9,2,9,5,14,T,7,Snow,297
2013-2-22,47,35,22,39,29,15,89,68,47,30.28,30.06,29.99,10,9,0,16,6,22,0.03,6,Rain,117
2013-2-23,58,47,35,39,34,31,79,61,43,29.99,29.91,29.83,10,10,6,10,2,16,0.00,5,,93
2013-2-24,38,35,31,30,24,19,82,69,56,30.17,30.04,29.89,10,6,1,13,3,20,T,8,Snow,283
2013-2-25,47,37,27,23,21,18,75,56,37,30.23,30.15,30.04,10,9,7,12,3,18,0.00,3,,69
2013-2-26,45,42,38,35,27,18,79,59,39,30.04,29.77,29.56,10,9,2,26,8,38,0.45,6,Rain,107
2013-2-27,45,41,37,39,35,30,89,77,65,29.72,29.65,29.56,10,8,2,15,7,22,0.34,8,Rain,216
2013-2-28,37,36,35,32,30,28,89,80,70,29.83,29.71,29.65,10,5,1,12,6,16,0.09,8,Snow,226